Zurück zum Katalog

COSMOS 970 DEB

AktivLEO
NORAD 64970·DEBRIS·🇷🇺 Russia

Gestartet Dec 21, 1977 von Baikonur Cosmodrome

Loading…

Nächste Überflüge (nächste 24 Stunden)

TLE

AlterndSource: Space-Track

Epoche: Sep 10, 2026, 14:15 UTC

1 64970U 77121CF  26253.59432514  .00000222  00000-0  59368-3 0  9995
2 64970  64.8400   9.0722 0126847 260.7907  97.8759 13.32130283622099

Verfolge COSMOS 970 DEB in Echtzeit mit AllMySat

Download on the App Store